Weather in Bratki

Russia / Voronezh Oblast     51°35′10″N   41°29′26″E
temp.,
°C
wind,
m/s
gust,
m/s
humid.,
%
clouds,
%
prec.,
mm/h
press.,
hPa
HPBL,
m
25 february, thu
thu2500:00−15s489591 0.2 1037324
03:00−14ssw599495 0.5 1035401
06:00−13ssw61194100 0.4 1032436
09:00−11sw71194100 1.3 1029482
12:00−8sw81395100 1.3 1026471
15:00−4sw91593100 2.5 1021448
18:00−1wsw81595100 0.8 1018510
21:00+1w61298100 1.2 1017311
26 february, fri
fri2600:00+1w51099100 0.1 1016283
03:00+1wnw51299100 0.4 1017296
06:00+1wnw4999100 0.3 1016254
09:00+2w51099100 0.7 1016283
12:00+2w510100100 0.0 1015224
15:00+2wsw61399100 0.0 1014373
18:00+2w61498100 0.1 1011403
21:00+2wsw61399100 0.4 1010359
27 february, sat
sat2700:00+2w61397100 0.1 1009465
03:00+1w51294100 0.1 1008493
06:00+1w51195100 0.0 1007427
09:00+1w61198100 0.1 1006531
12:00+1w610100100 0.1 1005609
15:00+1w61099100 0.1 1005598
18:00+1wnw61297100 0.1 1006558
21:000wnw61196100 0.2 1007559
28 february, sun
sun2800:000wnw61195100 0.1 1007573
03:00−3nnw4890100 0.4 1009481
06:00−6nnw588891 0.0 1011464
09:00−7nnw478794 0.0 1013499
12:00−6nnw5784100 0.0 1015541
15:00−5nnw5884100 0.0 1016632
18:00−6nnw5988100 0.0 1017555
21:00−7nnw5889100 0.1 1020564
1 march, mon
mon100:00−7nnw359392 0.2 1022364
03:00−7nnw369392 0.3 1023364
06:00−8nnw479285 0.0 1024369
09:00−8n478781 0.1 1026512
12:00−7n468393 0.0 1028604
15:00−6nnw578396 0.0 1028646
18:00−6nw378895 0.0 1029408
21:00−6wnw378897 0.0 1030393